759  
ASUS44 KEWX 140801  
RWREWX  
SOUTH TEXAS REGIONAL WEATHER ROUNDUP  
NATIONAL WEATHER SERVICE AUSTIN/SAN ANTONIO TX  
200 AM CST THU DEC 14 2017  
 
NOTE: "FAIR" INDICATED FEW OR NO CLOUDS BELOW 12,000 FEET WITH NO  
SIGNIFICANT WEATHER AND/OR S TO VISIBILITY
.  
 
* - THESE STATIONS ARE NOT NWS OR FAA STATIONS...AND ARE NOT SUBJECT  
TO NWS AND FAA QUALITY CONTROL.
 
 
TXZ171-172-183>190-140900-  
TEXAS HILL COUNTRY AND EDWARDS PLATEAU  
 
CITY SKY/WX TMP DP RH WIND PRES REMARKS
 
JUNCTION CLOUDY 43 35 73 NW3 29.93S  
*LLANO CLOUDY 45 36 70 CALM 29.97R  
BURNET CLOUDY 47 36 65 CALM 29.94S  
*HORSESHOE BAY CLOUDY 48 38 69 CALM 29.93R  
*KERRVILLE MOCLDY 41 36 83 CALM 29.94S  
*FREDERICKSBRG CLOUDY 45 35 67 CALM 29.93S  
*ROCKSPRINGS NOT AVBL  
*BOERNE STAGE MOCLDY 50 34 53 SW6 29.94F WCI 48  
*CASTROVILLE PTCLDY 45 38 76 NW5 29.96S WCI 42  
HONDO MOCLDY 45 37 73 NW5 29.94F WCI 43  
*UVALDE MOCLDY 41 38 87 CALM 29.96S  
DEL RIO CLOUDY 47 39 74 NE7 29.92F WCI 44  
LAUGHLIN AFB MOCLDY 42 38 84 NE7 29.92F WCI 38  
CARRIZO SPRGS PTCLDY 43 39 87 S3 29.92F  
*EAGLE PASS SUNNY 45 39 81 E3 29.93S  

 
 
TXZ173-191>194-202-209-217>225-228-140900-  
CENTRAL AND SOUTH CENTRAL TEXAS  
 
CITY SKY/WX TMP DP RH WIND PRES REMARKS
 
GEORGETOWN CLOUDY 48 38 68 SW3 29.93F  
AUSTIN/BERGSTM MOCLDY 41 37 86 CALM 29.93F  
AUSTIN/MABRY CLOUDY 44 40 85 CALM 29.94F  
*AUSTIN/EXEC CLOUDY 45 37 76 CALM 29.94S  
*LAGO VISTA MOCLDY 53 35 51 MISG 29.91F  
SAN MARCOS PTCLDY 40 36 86 CALM 29.94F  
NEW BRAUNFELS PTCLDY 42 37 82 SW3 29.92F  
RANDOLPH AFB PTCLDY 46 37 70 CALM 29.94S  
PT SAN ANTONIO MOCLDY 46 38 74 CALM 29.92F  
SAN ANTONIO PTCLDY 49 37 63 CALM 29.94F  
STINSON FIELD CLOUDY 46 40 79 CALM 29.93F  
*LA GRANGE CLOUDY 46 40 82 CALM 29.93S  
*GIDDINGS CLOUDY 46 37 69 S6 29.94F WCI 43  
*GONZALES CLOUDY 46 39 76 CALM 29.93F  

 
 
TXZ163>164-176>182-195>201-210>213-226-227-235-140900-  
SOUTHEAST TEXAS  
 
CITY SKY/WX TMP DP RH WIND PRES REMARKS
 
COLLEGE STN CLOUDY 46 38 73 S3 29.94F  
*BRYAN CLOUDY 47 37 68 CALM 29.95S  
*CALDWELL CLOUDY 46 37 70 SW5 29.94S WCI 44  
*CROCKETT N/A 37 34 87 CALM 29.96F  
*BRENHAM CLOUDY 50 40 69 SW3 29.95S  
HUNTSVILLE CLOUDY 48 37 65 SW6 29.93F WCI 45  
CONROE MOCLDY 40 39 97 CALM 29.95F  
HOUSTON BUSH MOCLDY 44 39 82 CALM 29.96S  
HOUSTON HOBBY CLOUDY 48 41 76 CALM 29.95F  
*HOUSTON SW AP CLOUDY 43 40 90 CALM 29.97S  
PEARLAND CLOUDY 47 42 83 CALM 29.97F  
HOUSTON HOOKS CLOUDY 44 40 85 CALM 29.96S  
ELLINGTON FLD MOCLDY 50 39 66 CALM 29.97  
SUGAR LAND CLOUDY 45 41 86 CALM 29.96F  
*HOUSTON EXEC NOT AVBL  
*CLEVELAND MUN CLOUDY 38 37 95 CALM 29.97F  
*WHARTON CLOUDY 44 40 87 CALM 29.97S  
*COLUMBUS FAIR 42 40 92 CALM 29.96F  
*EAGLE LAKE CLOUDY 44 42 94 CALM 29.95F  

 
 
TXZ214>216-236>238-140900-  
THE UPPER TEXAS COAST  
 
CITY SKY/WX TMP DP RH WIND PRES REMARKS
 
*ORANGE MOCLDY 41 41 98 CALM 29.98S  
PORT ARTHUR MOCLDY 41 40 96 SW3 29.96F  
GALVESTON PTCLDY 53 47 79 CALM 29.96F  
ANGLETON CLOUDY 48 42 80 CALM 29.96F  
*BAY CITY CLOUDY 50 46 85 CALM 29.97R  
PALACIOS CLOUDY 52 49 89 CALM 29.95F  

 
 
TXZ229>234-239>247-140900-  
TEXAS COASTAL BEND AND RIO GRANDE PLAINS  
 
CITY SKY/WX TMP DP RH WIND PRES REMARKS
 
VICTORIA CLOUDY 51 44 77 SW3 29.96F  
*BEEVILLE CLOUDY 49 44 82 S5 29.94F WCI 47  
ROCKPORT MOCLDY 55 49 80 SW5 29.96F  
*PORT ARANSAS NOT AVBL  
*PORT LAVACA CLOUDY 51 47 86 SW5 29.96F  
*INGLESIDE MOCLDY 55 51 85 SW3 29.96R  
CORPUS CHRISTI CLOUDY 52 49 89 CALM 29.96F  
CORPUS NAS CLOUDY 57 49 74 SW5 29.95F  
*ROBSTOWN MOCLDY 53 47 82 CALM 29.96S  
ALICE PTCLDY 49 44 83 CALM 29.94F  
KINGSVILLE NAS CLOUDY 50 48 93 CALM 29.95F  
COTULLA PTCLDY 44 39 82 CALM 29.94F  
*FAITH RANCH CLEAR 46 39 76 SE5 29.93F WCI 44  
LAREDO PTCLDY 50 41 71 MISG 29.93F  

 
 
TXZ248>255-140900-  
DEEP SOUTH TEXAS  
 
CITY SKY/WX TMP DP RH WIND PRES REMARKS
 
BROWNSVILLE CLEAR 54 53 97 CALM 29.94F  
PORT ISABEL CLEAR 56 54 93 S6 29.93F  
*SOUTH PADRE NOT AVBL  
HARLINGEN PTCLDY 51 50 96 S6 29.92F  
*HEBBRONVILLE CLOUDY 50 39 66 CALM 29.94F  
MCALLEN CLOUDY 54 48 80 CALM 29.93F  
*WESLACO PTCLDY 54 50 87 S3 29.92F  
FALFURRIAS PTCLDY 52 43 70 CALM 29.93F  
EDINBURG CLEAR 51 47 84 NW5 29.94S  
*ZAPATA CLEAR 53 41 63 CALM 29.92F  

 
 
TXZ213>215-236>238-242>244-246-247-251-254-255-140900-  
CMAN STATIONS  
 
STATION/POSITION TIME TEMP WIND PRES WAVE
 
AIR SEA DIR/SP/G HT/PER  
(UTC) (F) (DEG/KT/KT) (MB) (FT/S)  
SABINE PASS 0730 51 61 290/ 4/ 7 1016.2  
SEA RIM ST PARK 0700 50 270/ 6/ 6 1015.2  
NORTH JETTY/GLS 0730 61 240/ 8/ 9 1014.2  
EAGLE POINT 0730 51 55 250/ 4/ 5 1014.7  
MORGANS POINT 0730 52 57 220/ 2/ 3 1014.4  
PORT O'CONNOR 0730 58 61 270/ 4/ 6 1014.1  
MALAQUITE BEACH 0730 58 63 190/ 5/ 6 1013.7  
BAFFIN BAY 0730 57 57 260/ 1/ 1 1014.5  
PORT ISABEL 0730 60 62 150/ 3/ 5 1013.4  

 
 
 
CLICK HERE TO GO TO PREVIOUS BULLETINS.

The Nexlab TX Page Main Text Page